FW5955 Weather Reports


Display with metric or nautical units.
time (UTC)temp
F
wind
direction
speed
MPH
gust
MPH
rain 1hr
in
rain 24hr
in
rain mn
in
humidity
%
barometer
mb
20260906074538 55 251 2.0 11.0 0.02 0.14 0.02 93 1002.6
20260906073036 56 165 2.0 11.0 0.01 0.13 0.01 93 1002.7
20260906071535 56 127 2.0 9.0 0.01 0.13 0.01 93 1002.7
20260906070033 56 72 2.0 11.0 0.01 0.13 0.01 92 1002.5
20260906064531 56 290 2.0 12.0 0.00 0.12 0.00 92 1002.5
20260906063033 56 257 2.0 10.0 0.00 0.12 0.00 92 1002.5
20260906061536 57 73 3.0 13.0 0.00 0.12 0.00 91 1002.5
20260906060027 57 68 3.0 11.0 0.00 0.12 0.00 91 1002.5
20260906054523 57 172 3.0 13.0 0.00 0.12 0.00 91 1002.3
20260906053023 57 209 2.0 11.0 0.00 0.12 0.00 91 1002.4
20260906051521 57 323 3.0 15.0 0.00 0.12 0.00 91 1002.3
20260906050021 57 180 2.0 12.0 0.00 0.12 0.00 91 1002.3
20260906044519 57 32 3.0 15.0 0.00 0.12 0.00 91 1002.5
20260906043015 57 142 3.0 12.0 0.00 0.12 0.00 91 1002.4
20260906041514 58 269 3.0 11.0 0.00 0.12 0.00 91 1002.5
20260906040013 58 144 4.0 10.0 0.00 0.12 0.00 91 1002.6
20260906034511 57 45 3.0 10.0 0.00 0.12 0.00 91 1002.5
20260906033009 57 62 2.0 14.0 0.00 0.12 0.00 91 1002.7
20260906031509 57 80 2.0 8.0 0.00 0.12 0.00 91 1002.9
20260906030005 57 325 3.0 14.0 0.00 0.12 0.00 91 1002.7
20260906024504 57 289 3.0 16.0 0.00 0.12 0.12 91 1002.7
20260906023004 57 274 3.0 13.0 0.00 0.12 0.12 91 1002.6
20260906021502 57 191 4.0 10.0 0.00 0.12 0.12 91 1002.7
20260906020002 57 22 2.0 11.0 0.00 0.12 0.12 91 1002.9
20260906014601 57 146 3.0 11.0 0.00 0.12 0.12 92 1003.1
20260906013059 57 41 4.0 13.0 0.00 0.12 0.12 92 1003.0
20260906011558 57 324 2.0 11.0 0.00 0.12 0.12 92 1002.9
20260906010106 57 222 3.0 13.0 0.00 0.12 0.12 92 1003.1
20260906004558 57 91 3.0 11.0 0.00 0.12 0.12 92 1003.2
20260906003059 57 336 2.0 9.0 0.00 0.12 0.12 93 1003.1
20260906001606 57 85 4.0 13.0 0.00 0.12 0.12 93 1003.1
20260906000054 57 260 3.0 11.0 0.00 0.12 0.12 93 1003.1
20260905234551 57 47 3.0 10.0 0.01 0.12 0.12 93 1002.9
20260905233054 57 209 2.0 16.0 0.01 0.12 0.12 93 1002.7
20260905231548 57 114 3.0 13.0 0.02 0.12 0.12 93 1002.6
20260905230052 57 4 2.0 14.0 0.04 0.12 0.12 93 1002.5
20260905224554 57 74 2.0 9.0 0.03 0.11 0.11 93 1002.2
20260905223046 57 105 2.0 12.0 0.03 0.11 0.11 93 1002.1
20260905221547 57 79 2.0 9.0 0.02 0.09 0.09 93 1002.0
20260905220039 58 134 2.0 12.0 0.02 0.08 0.08 93 1002.0
20260905214537 58 92 3.0 11.0 0.02 0.08 0.08 92 1001.9
20260905213036 58 249 3.0 13.0 0.02 0.08 0.08 92 1001.8
20260905211543 58 173 3.0 11.0 0.01 0.07 0.07 92 1001.7
20260905210038 58 125 4.0 15.0 0.00 0.06 0.06 91 1001.6
20260905204530 59 143 4.0 15.0 0.00 0.06 0.06 91 1001.4
20260905203032 59 357 4.0 15.0 0.00 0.06 0.06 91 1001.2
20260905201527 59 70 3.0 12.0 0.00 0.06 0.06 91 1001.1
20260905200035 59 59 4.0 11.0 0.01 0.06 0.06 91 1001.1
20260905194522 58 195 2.0 12.0 0.02 0.06 0.06 92 1000.9
20260905193019 58 36 4.0 13.0 0.02 0.06 0.06 92 1000.7
20260905191516 58 74 4.0 20.0 0.02 0.06 0.06 92 1000.6
20260905190014 59 27 3.0 16.0 0.01 0.06 0.06 91 1000.6
20260905184512 59 108 3.0 12.0 0.00 0.05 0.05 91 1000.5
20260905183010 59 53 5.0 14.0 0.00 0.05 0.05 91 1000.2
20260905181508 60 210 3.0 15.0 0.00 0.05 0.05 90 1000.1
20260905180008 60 284 3.0 21.0 0.00 0.05 0.05 90 1000.0
20260905174506 60 241 3.0 16.0 0.00 0.05 0.05 89 999.9
20260905173007 60 77 4.0 18.0 0.00 0.05 0.05 90 999.9
20260905171511 60 35 5.0 14.0 0.00 0.05 0.05 91 999.6
20260905170003 61 70 5.0 11.0 0.00 0.05 0.05 91 999.4
20260905164502 61 99 5.0 18.0 0.00 0.05 0.05 91 999.3
20260905163001 61 32 6.0 18.0 0.00 0.05 0.05 91 999.1
20260905161609 63 85 4.0 15.0 0.00 0.05 0.05 90 999.0
20260905160100 63 48 4.0 17.0 0.00 0.05 0.05 88 998.9
20260905154600 63 228 4.0 20.0 0.00 0.06 0.05 88 998.9
20260905153059 62 305 5.0 18.0 0.00 0.06 0.05 89 998.8
20260905151558 62 347 4.0 11.0 0.00 0.06 0.05 89 998.9
20260905150058 62 30 3.0 11.0 0.00 0.06 0.05 89 999.0
20260905144558 62 36 2.0 9.0 0.00 0.14 0.05 89 999.2
20260905143057 63 20 3.0 9.0 0.00 0.14 0.05 89 999.1
20260905141556 64 188 2.0 16.0 0.00 0.14 0.05 90 999.1
20260905140053 62 223 3.0 15.0 0.00 0.14 0.05 90 999.0
20260905134557 62 329 2.0 9.0 0.00 0.17 0.05 91 998.8
20260905133052 62 90 3.0 15.0 0.00 0.17 0.05 92 998.7
20260905131553 61 184 2.0 15.0 0.00 0.17 0.05 93 998.6
20260905130050 61 49 2.0 10.0 0.00 0.17 0.05 93 998.6
20260905124550 61 79 4.0 13.0 0.01 0.31 0.05 93 998.6
20260905123048 61 290 4.0 10.0 0.03 0.31 0.05 93 998.7
20260905121548 61 342 2.0 14.0 0.03 0.31 0.05 94 998.5
20260905120047 61 257 2.0 9.0 0.02 0.30 0.04 94 998.1
20260905114559 60 108 1.0 4.0 0.02 0.34 0.04 94 998.1
20260905113046 60 255 1.0 5.0 0.00 0.31 0.02 93 998.0
20260905111547 61 238 1.0 6.0 0.00 0.31 0.02 94 998.1
20260905110046 60 37 1.0 8.0 0.00 0.31 0.02 94 997.8
20260905104549 60 57 2.0 9.0 0.00 0.35 0.02 94 997.8
20260905103047 59 261 1.0 5.0 0.00 0.35 0.02 94 997.7
20260905101544 59 359 1.0 6.0 0.00 0.35 0.02 94 997.8
20260905100044 59 264 0.0 6.0 0.00 0.35 0.02 94 997.8
20260905094558 59 332 0.0 4.0 0.00 0.39 0.02 94 997.7
20260905093044 59 226 0.0 4.0 0.00 0.39 0.02 94 997.8
20260905091545 59 15 0.0 5.0 0.00 0.39 0.02 94 997.8
20260905090039 60 323 1.0 4.0 0.01 0.39 0.02 94 997.8
20260905084542 60 266 0.0 4.0 0.01 0.56 0.02 94 997.8
20260905083035 60 128 1.0 5.0 0.02 0.56 0.02 93 997.7
20260905081534 61 250 1.0 6.0 0.01 0.56 0.01 94 997.7
20260905080048 61 42 0.0 4.0 0.01 0.56 0.01 94 997.7